Le nostre stazioni meteo in Italia

Pubblicità
Il mio iltempo24.it
Kielder Castle, Gran Bretagna (99186): Temperatura & dewpoint: 21.05.2018 02:00:00 - 27.05.2018 02:00:00 (BST)Kielder Castle, Gran Bretagna (99186): Temperatura -20cm & Temperatura -100cm: 21.05.2018 02:00:00 - 27.05.2018 02:00:00 (BST)Kielder Castle, Gran Bretagna (99186): precipitazioni: 21.05.2018 02:00:00 - 27.05.2018 02:00:00 (BST)
Data & Tempo tt [°C] td [°C] tt -20cm [°C] tt -100cm [°C] rr [mm]
27.05.2018 02:00:00 9,0 7,9 - - -
27.05.2018 01:00:00 9,2 7,8 - - 0,0
27.05.2018 00:00:00 9,7 7,9 - - 0,0
26.05.2018 23:00:00 9,7 8,1 - - 0,0
26.05.2018 22:00:00 10,8 7,8 - - 0,0
26.05.2018 21:00:00 13,9 7,7 - - 0,0
26.05.2018 20:00:00 16,2 8,0 - - 0,0
26.05.2018 19:00:00 17,6 9,1 - - 0,0
26.05.2018 18:00:00 20,2 8,1 - - 0,0
26.05.2018 17:00:00 20,7 6,8 - - 0,0
26.05.2018 16:00:00 20,7 7,5 - - 0,0
26.05.2018 15:00:00 20,6 9,0 - - 0,0
26.05.2018 14:00:00 19,9 8,7 - - 0,0
26.05.2018 13:00:00 19,4 8,2 - - 0,0
26.05.2018 12:00:00 18,9 11,4 - - 0,0
26.05.2018 11:00:00 17,2 11,9 - - 0,0
26.05.2018 10:00:00 15,1 10,4 14,5 11,5 0,0
26.05.2018 09:00:00 13,8 10,2 - - 0,0
26.05.2018 08:00:00 12,3 9,7 - - 0,0
26.05.2018 07:00:00 10,5 9,1 - - 0,0
26.05.2018 06:00:00 10,2 9,1 - - 0,0
26.05.2018 05:00:00 10,2 9,2 - - 0,0
26.05.2018 04:00:00 10,3 9,3 - - 0,0
26.05.2018 03:00:00 9,9 9,0 - - 0,0
26.05.2018 02:00:00 9,8 8,9 - - 0,0
26.05.2018 01:00:00 10,1 8,9 - - 0,0
26.05.2018 00:00:00 10,3 9,1 - - 0,0
25.05.2018 23:00:00 10,7 9,1 - - 0,0
25.05.2018 22:00:00 11,2 9,4 - - 0,0
25.05.2018 21:00:00 11,4 9,9 - - 0,0
25.05.2018 20:00:00 11,7 10,4 - - 1,0
25.05.2018 19:00:00 12,6 11,1 - - 1,2
25.05.2018 18:00:00 14,8 9,0 - - 0,0
25.05.2018 17:00:00 16,1 8,6 - - 0,0
25.05.2018 16:00:00 17,5 7,4 - - 0,0
25.05.2018 15:00:00 19,2 9,1 - - 0,0
25.05.2018 14:00:00 19,6 6,8 - - 0,0
25.05.2018 13:00:00 19,5 9,8 - - 0,0
25.05.2018 12:00:00 17,8 9,6 - - 0,0
25.05.2018 11:00:00 15,6 9,7 - - 0,0
25.05.2018 10:00:00 15,6 9,8 14,5 11,2 0,0
25.05.2018 09:00:00 13,6 9,1 - - 0,0
25.05.2018 08:00:00 12,4 8,5 - - 0,0
25.05.2018 07:00:00 8,7 7,3 - - 0,0
25.05.2018 06:00:00 6,6 5,8 - - 0,0
25.05.2018 05:00:00 6,4 5,9 - - 0,0
25.05.2018 04:00:00 6,4 5,9 - - 0,0
25.05.2018 03:00:00 5,0 4,2 - - 0,0
25.05.2018 02:00:00 5,9 4,9 - - 0,0
25.05.2018 01:00:00 7,7 6,9 - - 0,0
25.05.2018 00:00:00 8,0 6,6 - - 0,0
24.05.2018 23:00:00 9,5 7,3 - - 0,0
24.05.2018 22:00:00 12,6 8,8 - - 0,0
24.05.2018 21:00:00 14,6 9,0 - - 0,0
24.05.2018 20:00:00 16,2 9,2 - - 0,0
24.05.2018 19:00:00 17,4 8,1 - - 0,0
24.05.2018 18:00:00 18,6 9,1 - - 0,0
24.05.2018 17:00:00 19,2 10,2 - - 0,0
24.05.2018 16:00:00 19,5 10,7 - - 0,0
24.05.2018 15:00:00 18,9 10,3 - - 0,0
24.05.2018 14:00:00 18,4 9,6 - - 0,0
24.05.2018 13:00:00 18,3 10,7 - - 0,0
24.05.2018 12:00:00 16,3 9,5 - - 0,0
24.05.2018 11:00:00 12,9 8,7 - - 0,0
24.05.2018 10:00:00 11,0 8,0 14,0 11,2 0,0
24.05.2018 09:00:00 7,7 6,3 - - 0,0
24.05.2018 08:00:00 6,8 5,8 - - 0,0
24.05.2018 07:00:00 6,5 5,8 - - 0,0
24.05.2018 06:00:00 6,3 5,5 - - 0,0
24.05.2018 05:00:00 6,4 5,6 - - 0,0
24.05.2018 04:00:00 6,4 5,6 - - 0,0
24.05.2018 03:00:00 6,8 5,9 - - 0,0
24.05.2018 02:00:00 7,0 6,1 - - 0,0
24.05.2018 01:00:00 7,1 6,1 - - 0,0
24.05.2018 00:00:00 7,5 6,2 - - 0,0
23.05.2018 23:00:00 7,7 6,4 - - 0,0
23.05.2018 22:00:00 8,0 6,1 - - 0,0
23.05.2018 21:00:00 9,2 6,6 - - 0,0
23.05.2018 20:00:00 11,1 7,4 - - 0,0
23.05.2018 19:00:00 13,0 8,3 - - 0,0
23.05.2018 18:00:00 13,6 8,4 - - 0,0
23.05.2018 17:00:00 14,4 8,7 - - 0,0
23.05.2018 16:00:00 14,4 8,3 - - 0,0
23.05.2018 15:00:00 15,2 9,0 - - 0,0
23.05.2018 14:00:00 14,2 7,4 - - 0,0
23.05.2018 13:00:00 13,1 7,4 - - 0,0
23.05.2018 12:00:00 11,5 7,5 - - 0,0
23.05.2018 11:00:00 10,1 6,6 - - 0,0
23.05.2018 10:00:00 8,7 6,0 13,7 11,0 0,0
23.05.2018 09:00:00 7,8 5,8 - - 0,0
23.05.2018 08:00:00 7,3 5,6 - - 0,0
23.05.2018 07:00:00 7,1 5,8 - - 0,0
23.05.2018 06:00:00 7,0 5,7 - - 0,0
23.05.2018 05:00:00 7,0 5,6 - - 0,0
23.05.2018 04:00:00 7,1 5,9 - - 0,0
23.05.2018 03:00:00 7,4 6,1 - - 0,0
23.05.2018 02:00:00 7,5 6,1 - - 0,0
23.05.2018 01:00:00 7,6 6,0 - - 0,0
23.05.2018 00:00:00 7,7 6,1 - - 0,0
22.05.2018 23:00:00 7,9 6,0 - - 0,0
22.05.2018 22:00:00 7,9 6,4 - - 0,0
22.05.2018 21:00:00 8,3 6,6 - - 0,0
22.05.2018 20:00:00 9,0 6,9 - - 0,0
22.05.2018 19:00:00 9,3 7,1 - - 0,0
22.05.2018 18:00:00 10,1 7,2 - - 0,0
22.05.2018 17:00:00 10,2 7,5 - - 0,0
22.05.2018 16:00:00 10,6 7,3 - - 0,0
22.05.2018 15:00:00 10,4 7,0 - - 0,0
22.05.2018 14:00:00 10,8 7,1 - - 0,0
22.05.2018 13:00:00 11,4 7,2 - - 0,0
22.05.2018 12:00:00 9,6 6,4 - - 0,0
22.05.2018 11:00:00 9,7 6,1 - - 0,0
22.05.2018 10:00:00 8,8 6,3 14,0 11,0 0,0
22.05.2018 09:00:00 8,6 6,3 - - 0,0
22.05.2018 08:00:00 7,8 6,1 - - 0,0
22.05.2018 07:00:00 7,7 5,9 - - 0,0
22.05.2018 06:00:00 7,0 6,0 - - 0,0
22.05.2018 05:00:00 7,1 6,0 - - 0,0
22.05.2018 04:00:00 7,4 6,3 - - 0,0
22.05.2018 03:00:00 7,5 6,5 - - 0,0
22.05.2018 02:00:00 8,0 6,9 - - 0,0
22.05.2018 01:00:00 8,8 7,5 - - 0,0
22.05.2018 00:00:00 12,3 8,8 - - 0,0
21.05.2018 23:00:00 12,9 9,1 - - 0,0
21.05.2018 22:00:00 13,5 9,1 - - 0,0
21.05.2018 21:00:00 16,2 9,4 - - 0,0
21.05.2018 20:00:00 19,2 7,9 - - 0,0
21.05.2018 19:00:00 19,6 8,2 - - 0,0
21.05.2018 18:00:00 20,8 8,5 - - 0,0
21.05.2018 17:00:00 20,6 7,9 - - 0,0
21.05.2018 16:00:00 20,1 9,1 - - 0,0
21.05.2018 15:00:00 20,2 6,5 - - 0,0
21.05.2018 14:00:00 20,5 6,9 - - 0,0
21.05.2018 13:00:00 21,2 8,3 - - 0,0
21.05.2018 12:00:00 18,7 9,8 - - 0,0
21.05.2018 11:00:00 18,7 10,2 - - 0,0
21.05.2018 10:00:00 17,4 9,1 13,7 10,7 0,0
21.05.2018 09:00:00 14,5 9,3 - - 0,0
21.05.2018 08:00:00 10,0 6,9 - - 0,0
21.05.2018 07:00:00 6,3 4,8 - - 0,0
21.05.2018 06:00:00 3,4 2,6 - - 0,0
21.05.2018 05:00:00 3,3 2,1 - - 0,0
21.05.2018 04:00:00 4,1 2,8 - - 0,0
21.05.2018 03:00:00 5,3 3,5 - - 0,0
21.05.2018 02:00:00 6,5 3,9 - - 0,0

tt = Temperatura
td = dewpoint
tt -20cm = Temperatura -20cm
tt -100cm = Temperatura -100cm
rr = precipitazioni

Stazioni seguenti

WeatherPro
AMSI
MeteoEarth